sat.trackr.live / text

‹ back to catalog

STARLINK-1741

NORAD 46567 · 2020-070AM

PAYLOAD ACTIVE UNKNOWN

§ Identity

Operator
Country
US
Launch date
2020-10-06
Launch site
AFETR
Launch vehicle
Mass (kg)
RCS (m²)

Purposes: comms

External: N2YO · Heavens-Above · Gunter

§ Orbital elements

Epoch: 2026-07-03T10:59:25.344672Z

Period
87.91 min
Inclination
53.0152°
Eccentricity
0.0007819
Mean motion
16.38061958 rev/d
Perigee alt
165.8 km
Apogee alt
176.1 km
Semi-major
6,549.1 km
B*
7.2477e-4
RAAN
256.3391°
Arg perigee
319.9532°
Mean anomaly
40.0936°
Rev number
31,864

§ Raw data

STARLINK-17411 46567U 20070AM  26184.45793223  .07987208  12403-4  72477-3 0  99982 46567  53.0152 256.3391 0007819 319.9532  40.0936 16.38061958318643

JSON: /api/v1/satellites/46567 · /tle

For live sub-satellite position, see the globe view (requires WebGL).

§ Visibility from observer

Set your observer location to see the next 7 days of passes ≥ 10°. The values pass through the URL so the page stays shareable.

No JS? Fill the form by hand. The geolocation button needs JavaScript.